User: anonymous   Login
Location: Unspecified
(0.0000°N, 0.0000°E)
Time: 16:26:14
(UTC+02:00)
Language:

Cosmos 1626 Rocket - Orbit

View from above orbital plane
View from above orbital plane
View from above satellite
View from above satellite

Ground track
Ground track

The orbit data is extracted from the following two-line orbital elements,

1 15495U 85009B   17204.79518163 +.00000061 +00000-0 +44844-5 0  9996
2 15495 082.5256 153.1862 0019390 205.4333 154.5930 14.83773217734309
Epoch (UTC): 23 July 2017 19:05:03
Eccentricity: 0.0019390
inclination: 82.5256°
perigee height: 604 km
apogee height: 631 km
right ascension of ascending node: 153.1862°
argument of perigee: 205.4333°
revolutions per day: 14.83773217
mean anomaly at epoch: 154.5930°
orbit number at epoch: 73430

The dashed part of the orbit path shows where the satellite is in the earth's shadow,  

DLR